QPF
0.00 0.00 0.00 0.00 0.00 0.00 0.00 0.00 0.00 0.00 0.00 0.00 0.00 0.00 0.00 0.00 0.00 0.00 0.00 0.00 0.00 0.00 0.00 0.00 0.00 0.00 0.00 0.00 0.00 0.00 0.00 0.00 0.00 0.00 0.00 0.00 0.00 0.00 0.00 0.00 0.00 0.00 0.00 0.00 0.00 0.00 0.00 0.00 0.00
0.00 0.00 0.00 0.00 0.00 0.00 0.00 0.00 0.00 0.00 0.00 0.00 0.00 0.00 0.00 0.00 0.00 0.00 0.00 0.00 0.00 0.00 0.00 0.00 0.00 0.00 0.00 0.00 0.00 0.00 0.00 0.00 0.00 0.00 0.00 0.00 0.00 0.00 0.00 0.00 0.00 0.00 0.00 0.00 0.00 0.00 0.00 0.00 0.00
0.00 0.00 0.00 0.00 0.00 0.00 0.00 0.00 0.00 0.00 0.00 0.00 0.00 0.00 0.00 0.00 0.00 0.00 0.00 0.00 0.00 0.00 0.00 0.00 0.00 0.00 0.00 0.00 0.00 0.00 0.00 0.00 0.00 0.00 0.00 0.00 0.00 0.00 0.00 0.00 0.00 0.00 0.00 0.00 0.00 0.00 0.00 0.00 0.00
0.00 0.00 0.00 0.00 0.00 0.00 0.00 0.00 0.00 0.00 0.00 0.00 0.00 0.00 0.00 0.00 0.00 0.00 0.00 0.00 0.00 0.00 0.00 0.00 0.00 0.00 0.00 0.00 0.00 0.00 0.00 0.00 0.00 0.00 0.00 0.00 0.00 0.00 0.00 0.00 0.00 0.00 0.00 0.00 0.00 0.00 0.00 0.00 0.00
0.00 0.00 0.00 0.00 0.00 0.00 0.00 0.00 0.00 0.00 0.00 0.00 0.00 0.00 0.00 0.00 0.00 0.00 0.00 0.00 0.00 0.00 0.00 0.00 0.00 0.00 0.00 0.00 0.00 0.00 0.00 0.00 0.00 0.00 0.00 0.00 0.00 0.00 0.00 0.00 0.00 0.00 0.00 0.00 0.00 0.00 0.00 0.00 0.00
0.00 0.00 0.00 0.00 0.00 0.00 0.00 0.00 0.00 0.00 0.00 0.00 0.00 0.00 0.00 0.00 0.00 0.00 0.00 0.00 0.00 0.00 0.00 0.00 0.00 0.00 0.00 0.00 0.00 0.00 0.00 0.00 0.00 0.00 0.00 0.00 0.00 0.00 0.00 0.00 0.00 0.00 0.00 0.00 0.00 0.00 0.00 0.00 0.00
0.00 0.00 0.00 0.00 0.00 0.00 0.00 0.00 0.00 0.00 0.00 0.00 0.00 0.00 0.00 0.00 0.00 0.00 0.00 0.00 0.00 0.00 0.00 0.00 0.00 0.00 0.00 0.00 0.00 0.00 0.00 0.00 0.00 0.00 0.00 0.00 0.00 0.00 0.00 0.00 0.00 0.00 0.00 0.00 0.00 0.00 0.00 0.00 0.00
0.00 0.00 0.00 0.00 0.00 0.00 0.00 0.00 0.00 0.00 0.00 0.00 0.00 0.01 0.01 0.00 0.00 0.00 0.00 0.00 0.00 0.00 0.00 0.00 0.00 0.00 0.00 0.00 0.00 0.00 0.00 0.00 0.00 0.00 0.00 0.00 0.00 0.00 0.00 0.00 0.00 0.00 0.00 0.00 0.00 0.00 0.00 0.00 0.00
0.00 0.00 0.00 0.00 0.00 0.00 0.00 0.00 0.00 0.00 0.00 0.00 0.00 0.01 0.02 0.00 0.00 0.00 0.00 0.00 0.00 0.00 0.00 0.00 0.00 0.00 0.00 0.00 0.00 0.00 0.00 0.00 0.00 0.00 0.00 0.00 0.00 0.00 0.00 0.00 0.00 0.00 0.00 0.00 0.00 0.00 0.00 0.00 0.00
0.00 0.00 0.00 0.00 0.00 0.00 0.00 0.00 0.00 0.00 0.00 0.00 0.00 0.00 0.00 0.00 0.02 0.00 0.00 0.00 0.00 0.00 0.00 0.00 0.00 0.00 0.00 0.00 0.00 0.00 0.00 0.00 0.00 0.00 0.00 0.00 0.00 0.00 0.00 0.00 0.00 0.00 0.00 0.00 0.00 0.00 0.00 0.00 0.00
0.00 0.00 0.00 0.00 0.00 0.00 0.00 0.00 0.00 0.00 0.00 0.00 0.00 0.00 0.00 0.00 0.03 0.06 0.02 0.01 0.00 0.00 0.00 0.00 0.00 0.00 0.00 0.00 0.00 0.00 0.00 0.00 0.00 0.00 0.00 0.00 0.00 0.00 0.00 0.00 0.00 0.00 0.00 0.00 0.00 0.00 0.00 0.00 0.00
0.00 0.00 0.00 0.00 0.00 0.00 0.00 0.00 0.00 0.00 0.00 0.00 0.00 0.00 0.00 0.00 0.02 0.05 0.05 0.04 0.03 0.00 0.01 0.01 0.00 0.00 0.00 0.00 0.00 0.00 0.00 0.00 0.00 0.00 0.00 0.00 0.00 0.00 0.00 0.00 0.00 0.00 0.00 0.00 0.00 0.00 0.00 0.00 0.00
0.00 0.00 0.00 0.00 0.00 0.00 0.00 0.00 0.00 0.00 0.00 0.00 0.00 0.00 0.00 0.00 0.00 0.00 0.02 0.01 0.02 0.05 0.04 0.02 0.02 0.00 0.00 0.00 0.00 0.00 0.00 0.00 0.00 0.00 0.00 0.00 0.00 0.00 0.00 0.00 0.00 0.00 0.00 0.00 0.00 0.00 0.00 0.00 0.00
0.00 0.00 0.00 0.00 0.00 0.00 0.00 0.00 0.00 0.00 0.00 0.00 0.00 0.00 0.00 0.00 0.00 0.00 0.00 0.00 0.00 0.02 0.10 0.10 0.00 0.03 0.04 0.01 0.00 0.00 0.00 0.00 0.00 0.00 0.00 0.00 0.00 0.00 0.00 0.00 0.00 0.00 0.00 0.00 0.00 0.00 0.00 0.00 0.00
0.00 0.00 0.00 0.00 0.00 0.00 0.00 0.00 0.00 0.00 0.00 0.00 0.00 0.00 0.00 0.00 0.00 0.00 0.00 0.00 0.00 0.00 0.01 0.02 0.01 0.02 0.06 0.06 0.00 0.00 0.00 0.00 0.00 0.00 0.00 0.00 0.00 0.00 0.00 0.00 0.00 0.00 0.00 0.00 0.00 0.00 0.00 0.00 0.00
0.00 0.00 0.00 0.00 0.00 0.00 0.00 0.00 0.00 0.00 0.00 0.00 0.00 0.00 0.00 0.00 0.00 0.00 0.00 0.00 0.00 0.00 0.00 0.00 0.00 0.01 0.06 0.04 0.04 0.01 0.00 0.00 0.00 0.00 0.00 0.00 0.00 0.00 0.00 0.00 0.00 0.00 0.00 0.00 0.00 0.00 0.00 0.00 0.00
0.00 0.00 0.00 0.00 0.00 0.00 0.00 0.00 0.00 0.00 0.00 0.00 0.00 0.00 0.00 0.00 0.00 0.00 0.00 0.00 0.00 0.00 0.00 0.00 0.00 0.00 0.04 0.07 0.09 0.06 0.02 0.00 0.00 0.00 0.00 0.00 0.00 0.00 0.00 0.00 0.00 0.00 0.00 0.00 0.00 0.00 0.00 0.00 0.00
0.00 0.00 0.00 0.00 0.00 0.00 0.00 0.00 0.00 0.00 0.00 0.00 0.00 0.00 0.00 0.00 0.00 0.00 0.00 0.00 0.00 0.00 0.00 0.00 0.00 0.02 0.07 0.11 0.12 0.08 0.05 0.01 0.00 0.00 0.00 0.00 0.00 0.00 0.00 0.00 0.00 0.00 0.00 0.00 0.00 0.00 0.00 0.00 0.00
0.00 0.00 0.00 0.00 0.00 0.00 0.00 0.00 0.00 0.00 0.00 0.00 0.00 0.00 0.00 0.00 0.00 0.00 0.00 0.00 0.00 0.00 0.00 0.00 0.00 0.02 0.08 0.06 0.04 0.06 0.05 0.05 0.00 0.00 0.00 0.00 0.00 0.00 0.00 0.00 0.00 0.00 0.00 0.00 0.00 0.00 0.00 0.00 0.00
0.00 0.00 0.00 0.00 0.00 0.00 0.00 0.00 0.00 0.00 0.00 0.00 0.00 0.00 0.00 0.00 0.00 0.00 0.00 0.00 0.00 0.00 0.00 0.00 0.00 0.00 0.04 0.07 0.07 0.08 0.06 0.06 0.01 0.00 0.00 0.00 0.00 0.00 0.00 0.00 0.00 0.00 0.00 0.00 0.00 0.00 0.00 0.00 0.00
0.00 0.00 0.00 0.00 0.00 0.00 0.00 0.00 0.00 0.00 0.00 0.00 0.00 0.00 0.00 0.00 0.00 0.00 0.00 0.00 0.00 0.00 0.00 0.00 0.00 0.00 0.00 0.01 0.02 0.02 0.03 0.03 0.00 0.00 0.00 0.00 0.00 0.00 0.00 0.00 0.00 0.00 0.00 0.00 0.00 0.00 0.00 0.00 0.00
0.00 0.00 0.00 0.00 0.00 0.00 0.00 0.00 0.00 0.00 0.00 0.00 0.00 0.00 0.00 0.00 0.00 0.00 0.00 0.00 0.00 0.00 0.00 0.00 0.00 0.00 0.00 0.00 0.00 0.01 0.01 0.00 0.00 0.01 0.02 0.00 0.00 0.00 0.00 0.00 0.00 0.00 0.00 0.00 0.00 0.00 0.00 0.00 0.00
0.00 0.00 0.00 0.00 0.00 0.00 0.00 0.00 0.00 0.00 0.00 0.00 0.00 0.00 0.00 0.00 0.00 0.00 0.00 0.00 0.00 0.00 0.00 0.00 0.00 0.00 0.00 0.00 0.00 0.01 0.02 0.01 0.03 0.05 0.05 0.02 0.01 0.02 0.00 0.00 0.00 0.00 0.00 0.00 0.00 0.00 0.00 0.00 0.00
0.00 0.00 0.00 0.00 0.00 0.00 0.00 0.00 0.00 0.00 0.00 0.00 0.00 0.00 0.00 0.00 0.00 0.00 0.00 0.00 0.00 0.00 0.00 0.00 0.00 0.00 0.00 0.00 0.00 0.00 0.01 0.02 0.01 0.01 0.02 0.02 0.03 0.03 0.03 0.01 0.00 0.00 0.00 0.00 0.00 0.00 0.00 0.00 0.00
0.00 0.00 0.00 0.00 0.00 0.00 0.00 0.00 0.00 0.00 0.00 0.00 0.00 0.00 0.00 0.00 0.00 0.00 0.00 0.00 0.00 0.00 0.00 0.00 0.00 0.00 0.00 0.00 0.00 0.00 0.00 0.00 0.01 0.01 0.01 0.01 0.03 0.01 0.02 0.04 0.02 0.02 0.00 0.00 0.00 0.00 0.00 0.00 0.00
0.00 0.00 0.00 0.00 0.00 0.00 0.00 0.00 0.00 0.00 0.00 0.00 0.00 0.00 0.00 0.00 0.00 0.00 0.00 0.00 0.00 0.00 0.00 0.00 0.00 0.00 0.00 0.00 0.00 0.00 0.00 0.00 0.00 0.01 0.01 0.01 0.01 0.00 0.07 0.06 0.04 0.01 0.01 0.00 0.00 0.00 0.00 0.00 0.00
0.00 0.00 0.00 0.00 0.00 0.00 0.00 0.00 0.00 0.00 0.00 0.00 0.00 0.00 0.00 0.00 0.00 0.00 0.00 0.00 0.00 0.00 0.00 0.00 0.00 0.00 0.00 0.00 0.00 0.00 0.00 0.00 0.00 0.00 0.00 0.00 0.00 0.00 0.02 0.05 0.07 0.06 0.02 0.00 0.00 0.00 0.00 0.00 0.00
0.00 0.00 0.00 0.00 0.00 0.00 0.00 0.00 0.00 0.00 0.00 0.00 0.00 0.00 0.00 0.00 0.00 0.00 0.00 0.00 0.00 0.00 0.00 0.00 0.00 0.00 0.00 0.00 0.00 0.00 0.00 0.00 0.00 0.00 0.00 0.00 0.02 0.03 0.04 0.01 0.05 0.13 0.13 0.06 0.03 0.01 0.01 0.00 0.00
0.00 0.00 0.00 0.00 0.00 0.00 0.00 0.00 0.00 0.00 0.00 0.00 0.00 0.00 0.00 0.00 0.00 0.00 0.00 0.00 0.00 0.00 0.00 0.00 0.00 0.00 0.00 0.00 0.00 0.00 0.00 0.00 0.00 0.00 0.00 0.00 0.00 0.03 0.08 0.09 0.05 0.03 0.15 0.20 0.12 0.05 0.04 0.02 0.00
0.00 0.00 0.00 0.00 0.00 0.00 0.00 0.00 0.00 0.00 0.00 0.00 0.00 0.00 0.00 0.00 0.00 0.00 0.00 0.00 0.00 0.00 0.00 0.00 0.00 0.00 0.00 0.00 0.00 0.00 0.00 0.00 0.00 0.00 0.00 0.00 0.00 0.01 0.04 0.10 0.16 0.12 0.07 0.12 0.19 0.15 0.08 0.03 0.00
MSLP
1013.58 1013.08 1013.20 1013.30 1014.91 1015.81 1016.19 1015.89 1014.81 1013.64 1011.94 1010.38 1010.22 1010.28 1010.39 1010.70 1011.26 1012.61 1012.30 1012.45 1012.50 1013.69 1014.59 1015.13 1015.36 1015.62 1015.56 1015.67 1015.83 1016.12 1016.52 1016.91 1017.32 1017.72 1018.06 1018.34 1018.64 1018.87 1019.04 1019.21 1019.48 1019.70 1019.89 1020.07 1020.27 1020.41 1020.62 1020.86 1021.09
1013.54 1013.05 1013.31 1014.46 1015.60 1016.71 1016.62 1015.72 1014.59 1013.18 1011.83 1009.85 1009.82 1009.86 1010.14 1010.92 1011.29 1011.91 1012.52 1012.97 1012.68 1013.57 1014.69 1015.47 1015.64 1015.82 1015.89 1016.18 1016.41 1016.63 1017.12 1017.35 1017.73 1018.13 1018.46 1018.73 1018.94 1019.16 1019.39 1019.58 1019.81 1020.10 1020.28 1020.46 1020.65 1020.90 1021.15 1021.32 1021.50
1013.54 1013.47 1014.49 1015.85 1017.18 1017.33 1016.79 1015.85 1014.75 1012.60 1011.17 1010.26 1009.71 1009.36 1010.08 1011.54 1012.00 1012.40 1012.47 1013.09 1013.33 1013.97 1014.83 1015.67 1015.87 1015.95 1016.12 1016.54 1016.89 1017.12 1017.41 1017.96 1018.06 1018.42 1018.76 1018.97 1019.21 1019.45 1019.69 1019.90 1020.12 1020.41 1020.67 1020.91 1021.16 1021.29 1021.50 1021.71 1021.84
1013.77 1014.18 1015.72 1016.56 1017.50 1017.11 1016.52 1015.83 1014.83 1013.05 1010.77 1010.64 1010.42 1010.64 1011.03 1012.12 1012.37 1012.53 1013.31 1013.38 1013.65 1014.57 1015.08 1015.83 1016.12 1016.11 1016.37 1016.85 1017.23 1017.56 1017.79 1018.21 1018.55 1018.64 1018.94 1019.23 1019.47 1019.73 1020.02 1020.24 1020.44 1020.71 1021.08 1021.36 1021.57 1021.70 1021.82 1021.98 1022.28
1014.37 1015.51 1016.76 1017.66 1017.62 1017.00 1016.26 1015.80 1014.91 1013.91 1012.89 1011.59 1011.24 1011.65 1012.15 1013.00 1012.89 1013.00 1013.78 1014.31 1014.38 1014.95 1015.27 1015.97 1016.32 1016.42 1016.60 1017.10 1017.58 1017.86 1018.19 1018.44 1018.86 1019.01 1019.21 1019.42 1019.74 1020.06 1020.34 1020.57 1020.74 1021.01 1021.36 1021.65 1021.87 1022.08 1022.25 1022.38 1022.63
1015.38 1016.41 1017.75 1018.17 1017.79 1017.02 1016.47 1016.02 1015.48 1014.51 1013.71 1012.65 1012.28 1012.65 1013.64 1014.06 1013.94 1014.14 1014.46 1014.78 1014.99 1015.62 1015.98 1016.29 1016.61 1016.81 1016.81 1017.24 1017.79 1018.17 1018.42 1018.81 1019.04 1019.43 1019.51 1019.71 1020.01 1020.33 1020.59 1020.86 1021.07 1021.36 1021.67 1021.96 1022.19 1022.35 1022.52 1022.73 1022.94
1016.07 1017.10 1018.45 1018.41 1018.01 1017.35 1017.45 1016.40 1015.89 1015.46 1014.74 1013.86 1013.56 1013.60 1014.46 1014.75 1014.87 1014.91 1015.02 1015.33 1015.61 1015.92 1016.51 1016.96 1017.16 1017.29 1017.37 1017.51 1017.96 1018.36 1018.62 1019.05 1019.33 1019.55 1019.91 1020.08 1020.31 1020.52 1020.88 1021.07 1021.34 1021.62 1021.93 1022.22 1022.43 1022.61 1022.79 1022.99 1023.21
1016.56 1017.52 1018.69 1018.72 1018.36 1018.50 1017.77 1017.17 1016.58 1016.19 1015.65 1014.98 1013.93 1015.38 1015.50 1015.81 1015.64 1015.74 1015.88 1015.94 1016.35 1016.62 1016.77 1017.19 1017.47 1017.63 1017.93 1018.13 1018.31 1018.57 1018.89 1019.18 1019.62 1019.82 1020.11 1020.46 1020.65 1020.79 1021.05 1021.36 1021.55 1021.77 1022.05 1022.32 1022.54 1022.77 1022.99 1023.15 1023.35
1016.89 1018.20 1019.32 1019.55 1019.53 1019.50 1018.27 1017.99 1017.61 1016.72 1016.37 1016.23 1016.69 1016.69 1016.66 1016.75 1016.12 1016.29 1016.56 1016.82 1016.89 1017.08 1017.25 1017.34 1017.66 1017.88 1018.13 1018.45 1018.72 1018.94 1019.21 1019.47 1019.85 1020.23 1020.36 1020.64 1020.94 1021.25 1021.36 1021.56 1021.73 1021.91 1022.15 1022.38 1022.65 1022.86 1023.09 1023.35 1023.63
1018.18 1019.43 1020.52 1020.75 1020.53 1020.18 1019.29 1018.91 1018.67 1017.90 1018.02 1017.70 1017.16 1016.81 1016.93 1016.80 1017.05 1017.07 1017.18 1017.31 1017.53 1017.52 1017.36 1017.52 1017.65 1017.94 1018.18 1018.57 1019.03 1019.28 1019.47 1019.75 1020.03 1020.48 1020.77 1020.85 1021.07 1021.37 1021.74 1021.89 1021.89 1022.06 1022.35 1022.62 1022.79 1022.91 1023.12 1023.33 1023.70
1019.65 1021.02 1021.34 1021.03 1020.78 1020.48 1020.01 1019.69 1020.01 1019.63 1020.18 1020.50 1019.79 1018.38 1017.67 1017.44 1017.54 1017.39 1017.50 1017.51 1017.59 1017.49 1017.78 1017.80 1017.72 1018.01 1018.14 1018.49 1019.02 1019.44 1019.72 1019.96 1020.21 1020.48 1020.93 1021.13 1021.21 1021.44 1021.71 1022.10 1022.38 1022.42 1022.56 1022.90 1023.12 1023.24 1023.36 1023.47 1023.65
1021.44 1022.01 1021.86 1021.79 1021.30 1020.85 1020.67 1020.29 1021.12 1021.36 1022.17 1021.30 1020.40 1019.71 1018.88 1018.40 1018.13 1017.76 1017.52 1017.34 1017.66 1017.85 1017.48 1017.79 1017.85 1018.06 1018.00 1018.34 1018.72 1019.08 1019.54 1019.96 1020.25 1020.53 1020.80 1021.23 1021.41 1021.44 1021.64 1021.99 1022.29 1022.67 1022.85 1023.14 1023.37 1023.56 1023.65 1023.67 1023.70
1021.66 1022.27 1022.31 1022.20 1021.78 1021.81 1021.24 1021.35 1022.12 1022.27 1021.98 1021.35 1020.72 1020.20 1020.20 1019.79 1019.26 1018.59 1018.19 1017.72 1017.55 1016.83 1016.80 1017.03 1017.48 1017.79 1018.03 1018.24 1018.43 1018.83 1019.13 1019.68 1019.99 1020.51 1020.69 1021.01 1021.41 1021.46 1021.58 1021.93 1022.15 1022.37 1022.82 1023.19 1023.60 1023.79 1023.86 1023.93 1023.95
1022.87 1022.97 1023.02 1022.91 1022.29 1022.35 1022.67 1022.65 1022.70 1023.06 1022.53 1021.93 1021.54 1021.56 1021.29 1021.07 1020.63 1019.66 1019.02 1018.60 1017.98 1017.27 1016.84 1016.87 1017.02 1016.98 1017.41 1017.93 1018.07 1018.33 1018.66 1019.16 1019.72 1020.12 1020.44 1020.70 1021.14 1021.48 1021.66 1021.83 1022.14 1022.29 1022.50 1022.97 1023.41 1023.77 1023.95 1024.03 1024.13
1023.39 1023.83 1023.87 1024.11 1023.70 1023.83 1023.19 1023.73 1024.22 1024.00 1023.11 1022.91 1022.89 1022.85 1022.47 1021.99 1021.40 1021.26 1020.93 1020.13 1019.37 1018.38 1017.40 1017.01 1016.50 1016.48 1017.11 1017.36 1017.81 1017.81 1018.11 1018.56 1019.04 1019.58 1020.01 1020.28 1020.69 1021.20 1021.57 1021.89 1022.01 1022.22 1022.51 1022.78 1023.19 1023.74 1024.05 1024.18 1024.25
1024.59 1025.21 1025.72 1025.52 1025.17 1025.08 1024.07 1025.08 1024.81 1024.40 1024.10 1023.91 1024.11 1023.81 1023.47 1023.12 1022.60 1021.89 1021.39 1020.94 1020.19 1019.27 1018.47 1017.14 1016.80 1016.75 1016.82 1016.86 1016.96 1017.33 1017.78 1018.10 1018.41 1018.88 1019.43 1019.84 1020.13 1020.58 1021.12 1021.53 1021.83 1021.99 1022.37 1022.82 1023.07 1023.36 1024.09 1024.24 1024.31
1026.68 1027.24 1027.14 1026.76 1026.59 1026.20 1025.95 1026.30 1025.42 1025.09 1025.04 1025.15 1024.77 1024.81 1024.33 1023.73 1023.08 1022.39 1021.86 1021.49 1020.96 1020.20 1019.08 1017.70 1016.75 1016.54 1016.70 1016.66 1016.69 1016.96 1017.39 1017.79 1018.04 1018.40 1018.59 1019.15 1019.68 1020.02 1020.46 1020.86 1021.29 1021.87 1022.23 1022.54 1022.96 1023.32 1023.59 1024.02 1024.20
1028.31 1028.18 1027.89 1027.68 1027.52 1027.05 1027.24 1027.27 1026.54 1026.13 1026.15 1026.39 1026.03 1025.35 1025.04 1024.80 1024.21 1023.81 1022.80 1021.89 1021.29 1020.70 1019.94 1018.83 1018.03 1016.90 1016.65 1016.72 1016.94 1016.87 1017.25 1017.51 1017.82 1017.87 1018.00 1018.38 1018.82 1019.46 1019.99 1020.36 1020.74 1021.25 1022.01 1022.40 1022.81 1023.17 1023.33 1023.55 1023.86
1028.43 1028.67 1028.70 1028.22 1027.83 1027.87 1027.93 1027.73 1027.24 1026.91 1026.88 1026.93 1026.83 1026.53 1025.95 1025.61 1025.41 1024.61 1023.87 1022.68 1021.66 1021.00 1020.46 1019.72 1018.94 1018.33 1017.74 1016.56 1016.58 1016.66 1016.70 1016.70 1017.24 1017.65 1017.80 1018.25 1018.57 1018.89 1019.39 1019.82 1020.37 1020.71 1021.10 1021.65 1022.18 1022.71 1023.18 1023.55 1023.63
1028.87 1029.02 1029.16 1028.66 1028.27 1028.43 1028.62 1028.31 1028.00 1027.83 1027.86 1027.66 1027.36 1026.96 1026.80 1026.25 1025.58 1025.05 1024.25 1023.65 1022.75 1022.20 1021.48 1020.71 1019.87 1019.13 1018.35 1017.86 1016.76 1016.03 1016.21 1016.24 1016.33 1016.79 1017.32 1017.75 1018.21 1018.39 1018.53 1018.73 1019.27 1019.84 1020.45 1020.85 1021.41 1022.09 1022.87 1023.06 1023.27
1029.58 1029.91 1029.96 1030.00 1029.33 1028.84 1028.95 1029.30 1029.02 1028.49 1027.99 1027.65 1027.55 1027.53 1027.36 1027.34 1026.86 1026.17 1025.31 1024.55 1023.88 1022.87 1022.12 1021.38 1020.68 1019.73 1018.85 1018.26 1017.01 1015.92 1015.86 1015.90 1015.97 1016.21 1016.41 1016.54 1016.98 1017.53 1017.96 1018.29 1018.57 1019.02 1019.41 1019.98 1020.36 1020.98 1021.71 1022.45 1022.92
1030.23 1030.27 1030.26 1030.20 1030.26 1030.34 1030.01 1030.73 1030.00 1029.34 1028.56 1028.15 1027.97 1027.78 1027.82 1027.59 1027.28 1027.06 1026.34 1025.39 1024.69 1023.84 1022.84 1022.03 1021.08 1020.31 1019.39 1018.77 1017.74 1016.78 1015.64 1015.50 1015.24 1015.31 1015.58 1015.83 1016.25 1017.00 1017.61 1018.05 1018.30 1018.50 1018.71 1019.09 1019.43 1019.91 1020.49 1021.26 1021.88
1030.90 1030.60 1030.76 1030.75 1031.10 1031.24 1031.09 1031.29 1030.58 1029.98 1029.33 1028.76 1028.29 1028.04 1027.93 1027.81 1027.60 1027.24 1026.99 1026.33 1025.34 1024.45 1023.34 1022.47 1021.59 1020.68 1020.11 1019.30 1018.59 1017.89 1016.75 1015.54 1014.86 1015.01 1015.00 1015.46 1015.64 1015.85 1016.49 1017.00 1017.65 1018.02 1018.22 1018.48 1018.71 1019.20 1019.59 1020.00 1020.45
1031.36 1031.18 1031.65 1031.89 1032.31 1032.58 1032.13 1031.94 1031.46 1030.60 1029.87 1029.01 1028.41 1028.14 1027.93 1027.61 1027.56 1027.42 1027.05 1026.62 1025.78 1024.71 1023.78 1022.91 1022.03 1021.31 1020.43 1019.73 1018.96 1018.48 1017.73 1016.79 1015.76 1014.98 1014.85 1014.82 1015.04 1015.21 1015.44 1015.93 1016.42 1017.04 1017.42 1017.74 1017.74 1018.26 1018.84 1019.11 1019.50
1032.28 1032.58 1033.61 1034.18 1034.24 1033.93 1032.83 1032.22 1030.96 1030.40 1029.67 1029.21 1028.79 1028.26 1027.89 1027.68 1027.50 1027.42 1026.98 1026.68 1026.10 1025.26 1024.43 1023.23 1022.41 1021.80 1021.02 1020.21 1019.53 1018.95 1018.37 1017.65 1016.86 1016.03 1014.95 1014.57 1014.56 1014.51 1014.46 1014.78 1015.41 1015.71 1016.00 1016.48 1016.97 1017.56 1017.88 1018.18 1018.58
1033.61 1034.26 1035.42 1036.58 1036.65 1035.32 1033.56 1032.47 1030.99 1030.08 1029.56 1029.07 1028.97 1028.52 1027.98 1027.89 1027.66 1027.46 1026.98 1026.56 1026.27 1025.67 1024.95 1024.15 1022.81 1021.88 1021.33 1020.59 1019.97 1019.27 1018.76 1018.07 1017.34 1016.59 1015.66 1014.45 1013.66 1013.56 1013.66 1013.89 1014.14 1014.44 1014.88 1015.32 1015.80 1016.34 1016.82 1017.43 1017.73
1034.30 1035.25 1036.20 1037.25 1037.71 1036.99 1034.96 1032.98 1031.08 1030.08 1029.67 1029.38 1029.12 1028.38 1028.05 1027.98 1027.76 1027.37 1026.79 1026.42 1026.12 1025.65 1025.15 1024.44 1023.68 1022.58 1021.32 1020.98 1020.30 1019.63 1018.91 1018.46 1017.72 1016.78 1015.72 1014.88 1013.84 1012.94 1012.92 1013.02 1013.20 1013.38 1013.81 1014.26 1014.74 1015.17 1015.46 1016.16 1016.60
1034.77 1035.98 1037.06 1038.54 1039.45 1039.11 1036.26 1034.02 1032.12 1030.64 1029.84 1029.56 1029.01 1028.62 1028.13 1027.87 1027.76 1027.20 1026.69 1026.31 1025.74 1025.45 1025.08 1024.36 1023.66 1022.99 1022.25 1020.86 1020.52 1020.10 1019.35 1018.59 1017.97 1017.13 1016.11 1015.21 1014.22 1013.17 1012.26 1012.16 1012.46 1012.59 1012.70 1013.26 1013.68 1014.05 1014.36 1014.90 1015.31
1035.85 1036.98 1038.42 1039.57 1040.24 1040.01 1038.22 1034.50 1031.91 1030.76 1030.06 1029.64 1028.94 1028.41 1028.06 1027.86 1027.69 1027.20 1026.67 1026.08 1025.68 1025.27 1024.90 1024.37 1023.81 1023.14 1022.48 1021.76 1020.52 1020.06 1019.61 1018.80 1018.00 1017.28 1016.46 1015.49 1014.62 1013.71 1012.83 1011.96 1011.54 1011.72 1011.87 1012.18 1012.60 1012.81 1013.08 1013.70 1013.99
1036.56 1037.73 1038.91 1040.58 1041.56 1040.19 1038.56 1034.68 1031.36 1030.68 1029.89 1029.31 1028.69 1028.13 1027.77 1027.66 1027.59 1027.14 1026.65 1026.10 1025.61 1025.12 1024.66 1024.34 1023.89 1023.26 1022.59 1021.69 1021.04 1020.52 1019.86 1019.09 1018.22 1017.34 1016.44 1015.76 1014.84 1014.00 1013.12 1012.37 1011.78 1011.17 1011.09 1011.28 1011.47 1011.70 1011.90 1012.43 1012.59
Thickness
5738 5746 5749 5746 5715 5702 5696 5713 5725 5725 5745 5769 5773 5770 5772 5775 5768 5748 5778 5780 5780 5771 5762 5758 5755 5751 5748 5745 5743 5740 5736 5730 5727 5724 5722 5721 5719 5717 5715 5713 5709 5707 5706 5705 5705 5705 5705 5705 5704
5736 5743 5742 5722 5693 5681 5687 5713 5714 5733 5753 5774 5774 5776 5772 5764 5775 5772 5772 5776 5779 5771 5761 5756 5754 5751 5748 5743 5740 5737 5734 5728 5725 5722 5720 5718 5717 5716 5713 5711 5709 5706 5706 5705 5705 5704 5704 5704 5704
5733 5737 5721 5692 5672 5676 5685 5709 5714 5738 5758 5770 5772 5782 5776 5760 5768 5770 5778 5775 5773 5768 5761 5754 5753 5751 5749 5743 5738 5735 5732 5727 5724 5721 5719 5717 5716 5715 5712 5711 5709 5707 5705 5704 5704 5704 5704 5704 5704
5725 5724 5709 5679 5681 5693 5702 5707 5715 5735 5760 5767 5769 5760 5771 5768 5768 5773 5771 5772 5771 5763 5760 5753 5751 5752 5748 5742 5738 5734 5731 5727 5723 5721 5719 5716 5714 5713 5711 5710 5709 5707 5705 5704 5703 5704 5705 5705 5703
5716 5703 5679 5668 5677 5691 5705 5710 5719 5723 5735 5751 5758 5751 5754 5759 5767 5768 5765 5762 5763 5759 5757 5753 5750 5750 5747 5742 5737 5733 5729 5726 5723 5720 5718 5716 5714 5712 5711 5710 5709 5708 5706 5704 5704 5703 5704 5704 5702
5696 5691 5664 5661 5675 5691 5703 5709 5714 5717 5727 5739 5744 5748 5740 5752 5754 5756 5757 5755 5754 5752 5750 5749 5747 5746 5746 5742 5737 5732 5729 5725 5722 5719 5717 5715 5713 5712 5711 5710 5709 5707 5706 5705 5703 5703 5703 5702 5701
5686 5679 5662 5669 5676 5686 5688 5704 5707 5705 5715 5725 5736 5733 5736 5740 5745 5747 5749 5748 5746 5745 5742 5741 5741 5741 5741 5740 5736 5733 5730 5725 5722 5719 5716 5715 5713 5712 5710 5710 5709 5707 5706 5705 5704 5704 5703 5702 5701
5682 5676 5667 5669 5672 5671 5685 5692 5704 5701 5706 5724 5736 5712 5719 5728 5738 5739 5740 5741 5738 5737 5737 5735 5736 5737 5735 5734 5733 5731 5729 5726 5721 5719 5716 5714 5712 5712 5710 5709 5709 5708 5707 5706 5705 5704 5703 5702 5701
5685 5659 5654 5659 5660 5660 5682 5680 5691 5701 5701 5706 5707 5710 5717 5722 5731 5731 5729 5730 5731 5731 5730 5730 5730 5731 5732 5730 5729 5728 5726 5725 5721 5717 5715 5713 5711 5710 5709 5709 5708 5708 5707 5706 5705 5704 5703 5701 5699
5665 5651 5647 5652 5657 5658 5669 5669 5674 5684 5680 5685 5694 5706 5711 5716 5716 5716 5716 5717 5720 5721 5726 5727 5727 5727 5728 5726 5724 5724 5723 5722 5720 5716 5713 5713 5711 5709 5707 5707 5707 5707 5706 5705 5704 5704 5703 5702 5699
5655 5638 5641 5649 5656 5657 5661 5663 5662 5664 5657 5656 5662 5681 5694 5703 5705 5709 5710 5710 5712 5717 5717 5720 5720 5722 5723 5723 5722 5720 5719 5718 5719 5716 5712 5711 5709 5708 5707 5705 5705 5705 5705 5703 5701 5700 5701 5701 5699
5633 5633 5637 5641 5647 5654 5654 5657 5648 5645 5640 5651 5660 5669 5679 5686 5692 5699 5707 5709 5707 5709 5713 5713 5715 5716 5719 5720 5720 5719 5717 5715 5715 5715 5713 5709 5708 5707 5706 5706 5704 5703 5703 5701 5700 5698 5697 5698 5699
5633 5628 5633 5633 5640 5644 5649 5645 5635 5635 5638 5647 5656 5659 5660 5670 5678 5689 5695 5701 5706 5699 5712 5714 5711 5713 5715 5717 5716 5717 5716 5714 5713 5712 5712 5710 5707 5706 5706 5705 5704 5704 5701 5700 5698 5696 5695 5695 5696
5625 5624 5624 5625 5630 5633 5629 5629 5629 5627 5630 5639 5643 5641 5644 5648 5660 5672 5681 5685 5695 5705 5709 5709 5711 5713 5712 5713 5715 5715 5714 5713 5711 5711 5711 5711 5708 5705 5704 5704 5703 5702 5702 5699 5697 5696 5695 5693 5692
5618 5613 5613 5611 5614 5615 5620 5611 5606 5614 5625 5625 5624 5626 5628 5634 5640 5650 5655 5665 5674 5686 5698 5704 5708 5709 5708 5709 5710 5713 5713 5711 5711 5710 5710 5709 5709 5706 5704 5703 5703 5702 5700 5698 5696 5694 5693 5691 5690
5605 5594 5586 5597 5597 5598 5607 5587 5602 5606 5608 5611 5608 5611 5615 5618 5625 5629 5641 5649 5662 5671 5679 5695 5702 5703 5703 5706 5708 5709 5709 5710 5711 5710 5709 5708 5709 5707 5704 5703 5701 5702 5699 5697 5696 5694 5691 5690 5688
5574 5573 5580 5578 5581 5584 5582 5578 5591 5591 5591 5589 5594 5592 5598 5605 5612 5618 5623 5632 5644 5655 5667 5680 5693 5698 5697 5698 5701 5703 5703 5705 5707 5708 5710 5709 5707 5707 5706 5704 5702 5700 5699 5697 5694 5693 5691 5689 5688
5569 5567 5571 5569 5569 5566 5560 5560 5566 5573 5570 5562 5567 5579 5580 5584 5591 5595 5604 5614 5625 5637 5649 5662 5670 5685 5689 5691 5690 5693 5695 5697 5700 5706 5708 5709 5708 5705 5703 5703 5702 5701 5698 5696 5693 5690 5690 5689 5689
5571 5562 5557 5559 5565 5558 5551 5549 5547 5552 5552 5548 5547 5550 5558 5563 5564 5575 5581 5593 5607 5616 5628 5642 5653 5659 5668 5683 5686 5689 5691 5697 5696 5696 5699 5699 5701 5702 5701 5700 5698 5699 5699 5698 5695 5691 5688 5685 5687
5553 5547 5540 5545 5553 5547 5533 5536 5528 5529 5527 5526 5528 5530 5529 5535 5543 5548 5561 5568 5580 5591 5600 5616 5630 5641 5650 5661 5678 5689 5690 5692 5693 5692 5692 5694 5694 5698 5701 5703 5702 5700 5698 5697 5695 5692 5687 5685 5686
5541 5530 5526 5524 5532 5529 5527 5509 5507 5515 5512 5511 5508 5503 5503 5501 5508 5518 5530 5541 5552 5566 5577 5588 5606 5621 5634 5644 5662 5677 5683 5685 5688 5690 5692 5696 5697 5696 5696 5698 5699 5699 5698 5698 5697 5695 5691 5685 5683
5531 5527 5523 5518 5511 5498 5510 5477 5492 5486 5489 5488 5484 5478 5475 5476 5482 5490 5499 5515 5527 5539 5553 5564 5582 5598 5613 5623 5638 5655 5672 5676 5685 5689 5689 5691 5691 5688 5687 5686 5690 5694 5695 5697 5698 5696 5695 5689 5685
5514 5518 5511 5515 5499 5492 5491 5458 5468 5470 5466 5468 5465 5467 5461 5458 5464 5472 5478 5486 5502 5517 5531 5543 5558 5576 5590 5603 5615 5628 5646 5665 5676 5679 5683 5682 5686 5688 5685 5684 5684 5685 5688 5694 5695 5693 5694 5693 5691
5507 5508 5495 5488 5477 5455 5480 5461 5435 5448 5454 5454 5459 5462 5460 5458 5455 5457 5463 5470 5480 5497 5511 5524 5537 5551 5569 5582 5595 5606 5621 5637 5651 5667 5672 5674 5678 5682 5686 5686 5684 5683 5683 5686 5694 5692 5689 5691 5690
5485 5474 5416 5442 5423 5433 5460 5443 5441 5446 5452 5452 5450 5454 5454 5454 5451 5447 5453 5457 5466 5476 5490 5507 5520 5531 5547 5563 5573 5585 5597 5612 5627 5640 5657 5665 5669 5676 5683 5684 5685 5685 5686 5685 5685 5685 5687 5688 5688
5474 5464 5399 5381 5413 5433 5452 5440 5424 5446 5442 5448 5444 5446 5449 5447 5445 5443 5446 5449 5452 5461 5471 5483 5503 5516 5528 5543 5555 5566 5576 5592 5605 5621 5635 5652 5665 5672 5678 5678 5682 5687 5684 5683 5682 5683 5683 5681 5683
5464 5439 5450 5416 5434 5425 5432 5434 5428 5437 5434 5431 5428 5439 5440 5439 5441 5440 5444 5445 5446 5450 5458 5468 5480 5497 5514 5524 5537 5549 5559 5570 5586 5601 5619 5633 5649 5663 5669 5672 5674 5679 5681 5683 5683 5682 5683 5679 5680
5458 5447 5410 5368 5339 5332 5404 5411 5391 5423 5421 5414 5417 5423 5432 5432 5430 5437 5443 5443 5447 5447 5450 5457 5468 5479 5493 5511 5522 5531 5541 5552 5565 5582 5599 5614 5629 5645 5659 5665 5666 5669 5675 5676 5678 5680 5682 5677 5677
5435 5421 5402 5386 5379 5335 5358 5395 5403 5409 5408 5402 5407 5423 5426 5424 5424 5429 5435 5441 5443 5443 5446 5451 5457 5465 5477 5491 5506 5517 5526 5536 5548 5562 5576 5593 5608 5622 5636 5650 5660 5662 5666 5669 5669 5675 5679 5674 5677
5436 5421 5407 5346 5334 5354 5363 5385 5418 5406 5403 5405 5407 5414 5417 5418 5418 5422 5426 5432 5437 5441 5444 5446 5450 5456 5464 5476 5487 5497 5509 5521 5531 5544 5558 5573 5589 5603 5616 5628 5641 5653 5656 5661 5664 5666 5672 5672 5676